CW9854 Weather Reports


Display with metric or nautical units.
time (UTC)temp
F
wind
direction
speed
MPH
gust
MPH
rain 1hr
in
rain 24hr
in
rain mn
in
humidity
%
barometer
mb
20260905163003 70 21 0.0 1.0 0.00 0.00 0.00 77 1014.2
20260905162503 70 20 0.0 1.0 0.00 0.00 0.00 77 1014.3
20260905162003 70 4 0.0 1.0 0.00 0.00 0.00 77 1014.2
20260905161503 70 309 0.0 1.0 0.00 0.00 0.00 74 1014.2
20260905161218 70 323 0.0 2.0 0.00 0.00 0.00 76 1014.2
20260905160503 70 37 0.0 2.0 0.00 0.00 0.00 78 1014.3
20260905160003 70 44 1.0 3.0 0.00 0.00 0.00 77 1014.3
20260905155503 69 48 1.0 3.0 0.00 0.00 0.00 79 1014.4
20260905155218 69 57 1.0 3.0 0.00 0.00 0.00 80 1014.4
20260905154504 69 62 0.0 3.0 0.00 0.00 0.00 78 1014.4
20260905154003 69 43 1.0 2.0 0.00 0.00 0.00 79 1014.3
20260905153503 69 35 0.0 2.0 0.00 0.00 0.00 79 1014.4
20260905153003 69 45 0.0 2.0 0.00 0.00 0.00 82 1014.4
20260905152503 69 38 0.0 2.0 0.00 0.00 0.00 82 1014.5
20260905152003 68 16 0.0 2.0 0.00 0.00 0.00 81 1014.4
20260905151508 68 14 0.0 2.0 0.00 0.00 0.00 84 1014.7
20260905151003 68 45 1.0 2.0 0.00 0.00 0.00 83 1014.6
20260905150503 68 53 1.0 2.0 0.00 0.00 0.00 83 1014.7
20260905150218 68 53 1.0 2.0 0.00 0.00 0.00 84 1014.7
20260905145503 68 42 1.0 2.0 0.00 0.00 0.00 83 1014.6
20260905145003 68 42 0.0 2.0 0.00 0.00 0.00 83 1014.7
20260905144504 67 42 0.0 1.0 0.00 0.00 0.00 82 1014.6
20260905144218 67 42 0.0 3.0 0.00 0.00 0.00 84 1014.6
20260905143717 67 42 0.0 3.0 0.00 0.00 0.00 85 1014.5
20260905143005 66 36 0.0 2.0 0.00 0.00 0.00 86 1014.6
20260905142717 66 30 0.0 2.0 0.00 0.00 0.00 87 1014.6
20260905142003 66 30 0.0 1.0 0.00 0.00 0.00 89 1014.6
20260905141717 65 30 0.0 2.0 0.00 0.00 0.00 89 1014.5
20260905141003 65 30 0.0 2.0 0.00 0.00 0.00 92 1014.5
20260905140716 65 0 0.0 0.0 0.00 0.00 0.00 92 1014.6
20260905140004 64 0 0.0 0.0 0.00 0.00 0.00 93 1014.6
20260905135503 64 0 0.0 0.0 0.00 0.00 0.00 94 1014.7
20260905135003 64 42 0.0 3.0 0.00 0.00 0.00 95 1014.7
20260905134503 64 45 0.0 3.0 0.00 0.00 0.00 96 1014.9
20260905134003 64 80 0.0 1.0 0.00 0.00 0.00 97 1014.9
20260905133503 64 0 0.0 0.0 0.00 0.00 0.00 97 1014.7
20260905133003 64 80 0.0 1.0 0.00 0.00 0.00 98 1014.7
20260905132718 64 80 0.0 1.0 0.00 0.00 0.00 98 1014.7
20260905132003 63 80 0.0 1.0 0.00 0.00 0.00 98 1014.7
20260905131718 63 80 0.0 1.0 0.00 0.00 0.00 98 1014.7
20260905131003 62 0 0.0 0.0 0.00 0.00 0.00 98 1014.7
20260905130503 62 0 0.0 0.0 0.00 0.00 0.00 98 1014.7
20260905130217 62 0 0.0 0.0 0.00 0.00 0.00 98 1014.7
20260905125503 61 0 0.0 0.0 0.00 0.00 0.00 98 1014.6
20260905125004 60 0 0.0 0.0 0.00 0.00 0.00 97 1014.7
20260905124504 60 0 0.0 0.0 0.00 0.00 0.00 97 1014.7
20260905124003 60 0 0.0 0.0 0.00 0.00 0.00 97 1014.8
20260905123503 59 0 0.0 0.0 0.00 0.00 0.00 97 1014.9
20260905123003 58 0 0.0 0.0 0.00 0.00 0.00 96 1014.8
20260905122508 58 0 0.0 0.0 0.00 0.00 0.00 96 1014.9
20260905122003 58 0 0.0 0.0 0.00 0.00 0.00 96 1014.9
20260905121503 58 0 0.0 0.0 0.00 0.00 0.00 96 1015.0
20260905121005 58 0 0.0 0.0 0.00 0.00 0.00 96 1015.0
20260905120503 57 0 0.0 0.0 0.00 0.00 0.00 95 1015.0
20260905120003 57 0 0.0 0.0 0.00 0.00 0.00 95 1014.9
20260905115503 57 0 0.0 0.0 0.00 0.00 0.00 95 1014.9
20260905115003 57 0 0.0 0.0 0.00 0.00 0.00 95 1014.7
20260905114718 57 0 0.0 0.0 0.00 0.00 0.00 95 1014.7
20260905114003 57 0 0.0 0.0 0.00 0.00 0.00 95 1014.7
20260905113503 57 0 0.0 0.0 0.00 0.00 0.00 95 1014.6
20260905113003 57 0 0.0 0.0 0.00 0.00 0.00 95 1014.4
20260905112503 57 0 0.0 0.0 0.00 0.00 0.00 95 1014.4
20260905112216 57 0 0.0 0.0 0.00 0.00 0.00 95 1014.4
20260905111503 57 0 0.0 0.0 0.00 0.00 0.00 95 1014.3
20260905111003 57 0 0.0 0.0 0.00 0.00 0.00 95 1014.3
20260905110503 57 0 0.0 0.0 0.00 0.00 0.00 95 1014.2
20260905110003 57 0 0.0 0.0 0.00 0.00 0.00 95 1014.1
20260905105717 57 0 0.0 0.0 0.00 0.00 0.00 95 1014.1
20260905105003 57 0 0.0 0.0 0.00 0.00 0.00 94 1014.0
20260905104504 57 0 0.0 0.0 0.00 0.00 0.00 94 1014.0
20260905104003 57 0 0.0 0.0 0.00 0.00 0.00 94 1013.9
20260905103503 57 0 0.0 0.0 0.00 0.00 0.00 94 1014.0
20260905103003 58 0 0.0 0.0 0.00 0.00 0.00 94 1014.0
20260905102503 58 0 0.0 0.0 0.00 0.00 0.00 94 1014.1
20260905102003 58 0 0.0 0.0 0.00 0.00 0.00 94 1014.1
20260905101503 58 0 0.0 0.0 0.00 0.00 0.00 94 1014.1
20260905101003 58 0 0.0 0.0 0.00 0.00 0.00 94 1013.9
20260905100503 58 0 0.0 0.0 0.00 0.00 0.00 94 1014.0
20260905100003 58 0 0.0 0.0 0.00 0.00 0.00 94 1014.0
20260905095503 58 0 0.0 0.0 0.00 0.00 0.00 94 1014.0
20260905095218 58 0 0.0 0.0 0.00 0.00 0.00 94 1014.0
20260905094503 58 0 0.0 0.0 0.00 0.00 0.00 94 1013.9
20260905094003 58 0 0.0 0.0 0.00 0.00 0.00 94 1014.0
20260905093717 58 0 0.0 0.0 0.00 0.00 0.00 94 1013.9
20260905093003 58 0 0.0 0.0 0.00 0.00 0.00 94 1013.9
20260905092503 58 0 0.0 0.0 0.00 0.00 0.00 94 1013.7
20260905092003 58 0 0.0 0.0 0.00 0.00 0.00 94 1013.8
20260905091503 58 0 0.0 0.0 0.00 0.00 0.00 94 1013.7
20260905091003 58 0 0.0 0.0 0.00 0.00 0.00 94 1013.7
20260905090503 58 0 0.0 0.0 0.00 0.00 0.00 94 1013.6
20260905090003 58 0 0.0 0.0 0.00 0.00 0.00 94 1013.5
20260905085503 59 0 0.0 0.0 0.00 0.00 0.00 94 1013.5
20260905085003 59 0 0.0 0.0 0.00 0.00 0.00 94 1013.4
20260905084503 59 0 0.0 0.0 0.00 0.00 0.00 94 1013.2
20260905084003 59 0 0.0 0.0 0.00 0.00 0.00 94 1013.2
20260905083503 59 0 0.0 0.0 0.00 0.00 0.00 94 1013.2
20260905083003 59 0 0.0 0.0 0.00 0.00 0.00 94 1013.3
20260905082503 59 0 0.0 0.0 0.00 0.00 0.00 94 1013.3
20260905082217 59 0 0.0 0.0 0.00 0.00 0.00 94 1013.2
20260905081503 59 0 0.0 0.0 0.00 0.00 0.00 94 1013.3
20260905081217 59 0 0.0 0.0 0.00 0.00 0.00 94 1013.3
20260905080505 59 0 0.0 0.0 0.00 0.00 0.00 94 1013.4
20260905080003 60 0 0.0 0.0 0.00 0.00 0.00 94 1013.3
20260905075718 60 0 0.0 0.0 0.00 0.00 0.00 94 1013.3
20260905075003 60 0 0.0 0.0 0.00 0.00 0.00 94 1013.4
20260905074503 60 0 0.0 0.0 0.00 0.00 0.00 94 1013.4
20260905074003 60 0 0.0 0.0 0.00 0.00 0.00 94 1013.5
20260905073503 60 0 0.0 0.0 0.00 0.00 0.00 94 1013.5
20260905073003 60 0 0.0 0.0 0.00 0.00 0.00 94 1013.5
20260905072503 60 0 0.0 0.0 0.00 0.00 0.00 94 1013.6
20260905072003 60 0 0.0 0.0 0.00 0.00 0.00 94 1013.6
20260905071503 60 0 0.0 0.0 0.00 0.00 0.00 94 1013.7
20260905071003 60 0 0.0 0.0 0.00 0.00 0.00 94 1013.7
20260905070718 60 0 0.0 0.0 0.00 0.00 0.00 94 1013.7
20260905070217 60 0 0.0 0.0 0.00 0.00 0.00 94 1013.8
20260905065503 60 0 0.0 0.0 0.00 0.00 0.00 94 1013.9
20260905065003 61 0 0.0 0.0 0.00 0.00 0.00 94 1013.9
20260905064504 61 0 0.0 0.0 0.00 0.00 0.00 94 1013.8
20260905064003 61 0 0.0 0.0 0.00 0.00 0.00 94 1013.7
20260905063503 61 0 0.0 0.0 0.00 0.00 0.00 94 1013.8
20260905063003 61 0 0.0 0.0 0.00 0.00 0.00 93 1013.9
20260905062503 61 0 0.0 0.0 0.00 0.00 0.00 93 1013.9
20260905062003 61 0 0.0 0.0 0.00 0.00 0.00 93 1013.9
20260905061503 61 0 0.0 0.0 0.00 0.00 0.00 93 1013.9
20260905061008 61 0 0.0 0.0 0.00 0.00 0.00 93 1014.0
20260905060718 61 0 0.0 0.0 0.00 0.00 0.00 93 1014.0
20260905060003 61 0 0.0 0.0 0.00 0.00 0.00 93 1014.0
20260905055503 61 0 0.0 0.0 0.00 0.00 0.00 93 1014.0
20260905055003 62 0 0.0 0.0 0.00 0.00 0.00 93 1013.9
20260905054503 62 0 0.0 0.0 0.00 0.00 0.00 93 1014.0
20260905054216 62 0 0.0 0.0 0.00 0.00 0.00 93 1014.0
20260905053503 62 0 0.0 0.0 0.00 0.00 0.00 93 1014.0
20260905053218 62 0 0.0 0.0 0.00 0.00 0.00 93 1014.0
20260905052503 62 0 0.0 0.0 0.00 0.00 0.00 93 1014.0
20260905052003 62 0 0.0 0.0 0.00 0.00 0.00 93 1014.0
20260905051503 62 0 0.0 0.0 0.00 0.00 0.00 93 1014.1
20260905051003 62 0 0.0 0.0 0.00 0.00 0.00 93 1014.0
20260905050503 62 0 0.0 0.0 0.00 0.00 0.00 93 1014.0
20260905050003 63 0 0.0 0.0 0.00 0.00 0.00 93 1014.0
20260905045717 63 0 0.0 0.0 0.00 0.00 0.00 93 1014.1
20260905045003 63 0 0.0 0.0 0.00 0.00 0.00 93 1014.0
20260905044719 63 0 0.0 0.0 0.00 0.00 0.00 93 1014.1
20260905044003 63 0 0.0 0.0 0.00 0.00 0.00 93 1014.1
20260905043503 63 0 0.0 0.0 0.00 0.00 0.00 93 1014.0
20260905043003 63 0 0.0 0.0 0.00 0.00 0.00 93 1014.1
20260905042503 64 0 0.0 0.0 0.00 0.00 0.00 93 1014.2
20260905042003 64 0 0.0 0.0 0.00 0.00 0.00 93 1014.1
20260905041503 64 0 0.0 0.0 0.00 0.00 0.00 93 1014.2
20260905041003 64 0 0.0 0.0 0.00 0.00 0.00 93 1014.2
20260905040503 64 0 0.0 0.0 0.00 0.00 0.00 93 1014.0
20260905040004 64 0 0.0 0.0 0.00 0.00 0.00 93 1014.0
20260905035503 64 0 0.0 0.0 0.00 0.00 0.00 93 1014.1
20260905035218 64 0 0.0 0.0 0.00 0.00 0.00 92 1014.0
20260905034504 64 0 0.0 0.0 0.00 0.00 0.00 92 1014.1
20260905034218 64 0 0.0 0.0 0.00 0.00 0.00 92 1014.0
20260905033504 64 0 0.0 0.0 0.00 0.00 0.00 92 1014.1
20260905033218 64 0 0.0 0.0 0.00 0.00 0.00 92 1014.0
20260905032503 65 0 0.0 0.0 0.00 0.00 0.00 92 1014.0
20260905032003 65 0 0.0 0.0 0.00 0.00 0.00 92 1013.9
20260905031503 65 0 0.0 0.0 0.00 0.00 0.00 92 1013.8
20260905031003 65 0 0.0 0.0 0.00 0.00 0.00 92 1013.9
20260905030504 65 0 0.0 0.0 0.00 0.00 0.00 92 1013.9
20260905030003 65 0 0.0 0.0 0.00 0.00 0.00 92 1013.8
20260905025503 65 0 0.0 0.0 0.00 0.00 0.00 92 1013.9
20260905025217 65 0 0.0 0.0 0.00 0.00 0.00 92 1014.0
20260905024503 66 0 0.0 0.0 0.00 0.00 0.00 91 1014.0
20260905024003 66 0 0.0 0.0 0.00 0.00 0.00 91 1014.1
20260905023503 66 0 0.0 0.0 0.00 0.00 0.00 91 1014.1
20260905023217 66 0 0.0 0.0 0.00 0.00 0.00 91 1014.0
20260905022503 66 0 0.0 0.0 0.00 0.00 0.00 91 1014.0
20260905022003 66 0 0.0 0.0 0.00 0.00 0.00 91 1014.1
20260905021503 66 0 0.0 0.0 0.00 0.00 0.00 91 1014.0
20260905021217 66 0 0.0 0.0 0.00 0.00 0.00 91 1014.0
20260905020503 67 0 0.0 0.0 0.00 0.00 0.00 91 1013.9
20260905020003 67 0 0.0 0.0 0.00 0.00 0.00 90 1013.9
20260905015503 67 0 0.0 0.0 0.00 0.00 0.00 90 1013.9
20260905015217 67 0 0.0 0.0 0.00 0.00 0.00 90 1014.0
20260905014503 67 0 0.0 0.0 0.00 0.00 0.00 90 1013.9
20260905014003 67 0 0.0 0.0 0.00 0.00 0.00 90 1014.0
20260905013504 67 0 0.0 0.0 0.00 0.00 0.00 90 1014.1
20260905013003 67 0 0.0 0.0 0.00 0.00 0.00 90 1014.0
20260905012503 67 0 0.0 0.0 0.00 0.00 0.00 90 1014.0
20260905012003 68 0 0.0 0.0 0.00 0.00 0.00 90 1014.1
20260905011503 68 0 0.0 0.0 0.00 0.00 0.00 90 1014.2
20260905011003 68 0 0.0 0.0 0.00 0.00 0.00 90 1014.2
20260905010503 68 0 0.0 0.0 0.00 0.00 0.00 91 1014.2
20260905010003 68 0 0.0 0.0 0.00 0.00 0.00 90 1014.0
20260905005503 68 0 0.0 0.0 0.00 0.00 0.00 90 1014.2
20260905005217 68 0 0.0 0.0 0.00 0.00 0.00 90 1014.2
20260905004721 68 0 0.0 0.0 0.00 0.01 0.00 89 1014.1
20260905004003 68 0 0.0 0.0 0.00 0.01 0.00 89 1014.1
20260905003503 68 0 0.0 0.0 0.00 0.02 0.00 89 1014.1
20260905003003 68 0 0.0 0.0 0.00 0.02 0.00 89 1014.0
20260905002503 68 0 0.0 0.0 0.00 0.02 0.00 88 1013.7
20260905002003 68 0 0.0 0.0 0.00 0.02 0.00 88 1013.7
20260905001503 68 0 0.0 0.0 0.00 0.02 0.00 88 1013.7
20260905001003 69 0 0.0 0.0 0.00 0.02 0.00 88 1013.7
20260905000503 69 0 0.0 0.0 0.00 0.02 0.00 87 1013.7
20260905000219 69 0 0.0 0.0 0.00 0.02 0.00 87 1013.7
20260904235503 69 0 0.0 0.0 0.00 0.03 0.00 88 1013.6
20260904235003 69 0 0.0 0.0 0.00 0.04 0.00 87 1013.9
20260904234503 69 0 0.0 0.0 0.00 0.06 0.00 87 1013.8
20260904234003 70 0 0.0 0.0 0.00 0.13 0.00 87 1013.6
20260904233503 70 0 0.0 0.0 0.00 0.17 0.00 87 1013.7
20260904233003 70 0 0.0 0.0 0.00 0.17 0.00 85 1013.6
20260904232503 70 0 0.0 0.0 0.00 0.17 0.00 86 1013.7
20260904232003 70 0 0.0 0.0 0.00 0.17 0.00 86 1013.8
20260904231503 70 0 0.0 0.0 0.00 0.17 0.00 85 1013.8
20260904231003 71 0 0.0 0.0 0.00 0.17 0.00 84 1013.7
20260904230717 71 0 0.0 0.0 0.00 0.17 0.00 84 1013.6
20260904230003 71 0 0.0 0.0 0.00 0.17 0.00 83 1013.5
20260904225503 71 0 0.0 0.0 0.00 0.17 0.00 84 1013.4
20260904225218 71 0 0.0 0.0 0.00 0.17 0.00 84 1013.4
20260904224503 72 0 0.0 0.0 0.00 0.17 0.00 83 1013.3
20260904224003 72 0 0.0 0.0 0.00 0.17 0.00 85 1013.3
20260904223503 72 0 0.0 0.0 0.00 0.17 0.00 84 1013.3
20260904223003 72 0 0.0 0.0 0.00 0.17 0.00 83 1013.1
20260904222503 72 0 0.0 0.0 0.00 0.17 0.00 83 1013.0
20260904222003 72 0 0.0 0.0 0.00 0.17 0.00 85 1013.0
20260904221503 72 0 0.0 0.0 0.00 0.17 0.00 85 1013.0
20260904221003 72 0 0.0 0.0 0.00 0.17 0.00 85 1012.8
20260904220503 72 0 0.0 0.0 0.00 0.17 0.00 84 1012.7
20260904220003 72 0 0.0 0.0 0.00 0.17 0.00 83 1012.7
20260904215503 72 0 0.0 0.0 0.00 0.17 0.00 82 1012.7
20260904215003 72 0 0.0 0.0 0.00 0.17 0.00 81 1012.8
20260904214503 72 0 0.0 0.0 0.00 0.17 0.00 84 1012.8
20260904214217 72 0 0.0 0.0 0.00 0.17 0.00 83 1012.9
20260904213503 72 0 0.0 0.0 0.00 0.17 0.00 81 1012.8
20260904213003 72 0 0.0 0.0 0.00 0.18 0.00 81 1012.8
20260904212718 72 0 0.0 0.0 0.00 0.18 0.00 81 1012.9
20260904212003 72 0 0.0 0.0 0.00 0.18 0.00 83 1012.9
20260904211503 72 0 0.0 0.0 0.00 0.18 0.00 83 1013.0
20260904211003 72 0 0.0 0.0 0.00 0.18 0.00 83 1013.1
20260904210503 72 0 0.0 0.0 0.00 0.18 0.00 80 1013.1
20260904210003 73 0 0.0 0.0 0.00 0.21 0.00 80 1013.2
20260904205503 73 0 0.0 0.0 0.00 0.21 0.00 80 1013.2
20260904205003 73 0 0.0 0.0 0.00 0.21 0.00 78 1013.3
20260904204503 74 0 0.0 0.0 0.00 0.21 0.00 79 1013.3
20260904204003 74 109 0.0 1.0 0.00 0.21 0.00 78 1013.4
20260904203503 74 124 0.0 2.0 0.00 0.21 0.00 78 1013.3
20260904203003 74 125 0.0 2.0 0.00 0.21 0.00 78 1013.3
20260904202503 74 99 0.0 2.0 0.00 0.21 0.00 79 1013.5
20260904202003 75 61 0.0 2.0 0.00 0.21 0.00 78 1013.5
20260904201503 75 270 0.0 2.0 0.00 0.21 0.00 78 1013.6
20260904201003 75 298 0.0 2.0 0.00 0.21 0.00 79 1013.4
20260904200503 74 328 0.0 2.0 0.00 0.21 0.00 81 1013.5
20260904200003 74 44 0.0 1.0 0.00 0.21 0.00 80 1013.5
20260904195718 74 44 0.0 1.0 0.00 0.21 0.00 80 1013.6
20260904195003 73 8 0.0 3.0 0.00 0.22 0.00 83 1013.6
20260904194718 73 8 0.0 3.0 0.00 0.22 0.00 83 1013.7
20260904194003 73 41 0.0 1.0 0.00 0.22 0.00 82 1013.8
20260904193503 73 35 0.0 1.0 0.00 0.22 0.00 80 1013.8
20260904193003 73 34 0.0 1.0 0.00 0.22 0.00 79 1013.9
20260904192503 73 71 0.0 2.0 0.00 0.22 0.00 80 1013.9
20260904192003 73 104 0.0 2.0 0.00 0.22 0.00 79 1014.1
20260904191503 73 153 0.0 1.0 0.00 0.22 0.00 84 1014.1
20260904191003 72 168 0.0 1.0 0.00 0.22 0.00 85 1014.2
20260904190503 72 176 0.0 1.0 0.00 0.22 0.00 83 1014.2
20260904190003 72 190 0.0 1.0 0.00 0.22 0.00 83 1014.2
20260904185503 72 190 0.0 1.0 0.00 0.22 0.00 81 1014.5
20260904185218 72 0 0.0 0.0 0.00 0.22 0.00 81 1014.4
20260904184717 72 172 0.0 1.0 0.00 0.22 0.00 81 1014.5
20260904184003 73 81 0.0 2.0 0.00 0.22 0.00 79 1014.5
20260904183503 73 3 0.0 2.0 0.00 0.22 0.00 77 1014.6
20260904183003 73 219 0.0 1.0 0.00 0.22 0.00 78 1014.6
20260904182503 73 188 0.0 3.0 0.00 0.22 0.00 77 1014.5
20260904182003 74 174 0.0 3.0 0.00 0.22 0.00 79 1014.5
20260904181503 74 0 0.0 0.0 0.00 0.22 0.00 78 1014.6
20260904181003 74 166 0.0 2.0 0.00 0.22 0.00 80 1014.6
20260904180503 74 133 0.0 3.0 0.00 0.22 0.00 79 1014.6
20260904180003 74 90 0.0 3.0 0.00 0.22 0.00 77 1014.6
20260904175503 74 30 0.0 1.0 0.00 0.22 0.00 79 1014.7
20260904175003 74 0 0.0 0.0 0.00 0.22 0.00 79 1014.7
20260904174717 74 33 0.0 1.0 0.00 0.22 0.00 79 1014.6
20260904174218 75 135 0.0 1.0 0.00 0.22 0.00 78 1014.7
20260904173503 75 199 0.0 1.0 0.00 0.22 0.00 78 1014.7
20260904173003 75 0 0.0 0.0 0.00 0.22 0.00 78 1014.9
20260904172503 75 158 0.0 1.0 0.00 0.22 0.00 80 1015.0
20260904172003 74 151 0.0 1.0 0.00 0.22 0.00 76 1015.0
20260904171717 74 150 0.0 1.0 0.00 0.22 0.00 72 1015.0
20260904171003 74 132 0.0 1.0 0.00 0.22 0.00 76 1014.9
20260904170503 74 146 0.0 2.0 0.00 0.22 0.00 75 1015.0
20260904170003 74 204 0.0 3.0 0.00 0.22 0.00 82 1015.1
20260904165503 74 215 0.0 3.0 0.00 0.22 0.00 82 1015.2
20260904165003 73 359 0.0 2.0 0.00 0.22 0.00 79 1015.4
20260904164503 73 28 0.0 2.0 0.00 0.22 0.00 78 1015.4
20260904164218 73 42 0.0 2.0 0.00 0.22 0.00 81 1015.4
20260904163503 73 336 0.0 2.0 0.00 0.22 0.00 84 1015.4
20260904163217 73 221 0.0 2.0 0.00 0.22 0.00 84 1015.5